| time (UTC) | temp C | wind direction | speed KPH | gust KPH | rain 1hr cm | rain 24hr cm | rain mn cm | humidity % | barometer mb |
| 20260503045528 | 25 | 121 | 1.6 | 4.8 | 0.00 | 0.23 | 0.00 | 67 | |
| 20260503044528 | 25 | 95 | 1.6 | 6.4 | 0.00 | 0.23 | 0.00 | 66 | |
| 20260503043528 | 25 | 216 | 3.2 | 12.9 | 0.00 | 0.23 | 0.00 | 65 | |
| 20260503042528 | 25 | 217 | 1.6 | 3.2 | 0.00 | 0.23 | 0.00 | 67 | |
| 20260503041528 | 25 | 180 | 3.2 | 9.7 | 0.00 | 0.23 | 0.00 | 65 | |
| 20260503040528 | 25 | 248 | 1.6 | 8.0 | 0.00 | 0.23 | 0.00 | 67 | |
| 20260503035528 | 25 | 349 | 1.6 | 3.2 | 0.00 | 0.23 | 0.00 | 66 | |
| 20260503034528 | 25 | 206 | 1.6 | 4.8 | 0.00 | 0.23 | 0.00 | 64 | |
| 20260503033528 | 25 | 220 | 1.6 | 3.2 | 0.00 | 0.23 | 0.00 | 65 | |
| 20260503032528 | 25 | 150 | 4.8 | 11.3 | 0.00 | 0.23 | 0.00 | 64 | |
| 20260503031528 | 25 | 180 | 1.6 | 9.7 | 0.00 | 0.23 | 0.00 | 67 | |
| 20260503030528 | 25 | 88 | 1.6 | 9.7 | 0.00 | 0.23 | 0.00 | 67 | |
| 20260503025528 | 25 | 252 | 1.6 | 6.4 | 0.00 | 0.23 | 0.00 | 67 | |
| 20260503024528 | 25 | 179 | 3.2 | 8.0 | 0.00 | 0.23 | 0.00 | 67 | |
| 20260503023528 | 25 | 153 | 3.2 | 9.7 | 0.00 | 0.23 | 0.00 | 64 | |
| 20260503022528 | 25 | 213 | 3.2 | 8.0 | 0.00 | 0.23 | 0.00 | 64 | |
| 20260503021528 | 25 | 260 | 1.6 | 6.4 | 0.00 | 0.23 | 0.00 | 64 | |
| 20260503020528 | 25 | 190 | 3.2 | 9.7 | 0.00 | 0.23 | 0.00 | 65 | |
| 20260503015528 | 24 | 149 | 3.2 | 8.0 | 0.00 | 0.23 | 0.00 | 69 | |
| 20260503014528 | 25 | 185 | 6.4 | 12.9 | 0.00 | 0.23 | 0.00 | 69 | |
| 20260503013528 | 25 | 153 | 4.8 | 9.7 | 0.00 | 0.23 | 0.00 | 67 | |
| 20260503012540 | 25 | 163 | 3.2 | 9.7 | 0.00 | 0.23 | 0.00 | 68 | |
| 20260503011528 | 25 | 169 | 3.2 | 9.7 | 0.00 | 0.23 | 0.00 | 69 | |
| 20260503010528 | 24 | 140 | 1.6 | 8.0 | 0.00 | 0.23 | 0.00 | 70 | |
| 20260503005528 | 24 | 159 | 4.8 | 9.7 | 0.00 | 0.23 | 0.00 | 71 | |
| 20260503004528 | 25 | 133 | 3.2 | 9.7 | 0.00 | 0.23 | 0.00 | 70 | |
| 20260503003528 | 25 | 136 | 3.2 | 8.0 | 0.00 | 0.23 | 0.00 | 69 | |
| 20260503002528 | 25 | 112 | 0.0 | 3.2 | 0.00 | 0.23 | 0.00 | 69 | |
| 20260503001528 | 25 | 175 | 4.8 | 9.7 | 0.00 | 0.23 | 0.00 | 69 | |
| 20260503000528 | 25 | 138 | 3.2 | 8.0 | 0.00 | 0.23 | 0.00 | 68 | |
| 20260502235528 | 24 | 136 | 3.2 | 9.7 | 0.00 | 0.23 | 0.00 | 71 | |
| 20260502234528 | 23 | 174 | 4.8 | 8.0 | 0.00 | 0.23 | 0.00 | 72 | |
| 20260502233528 | 23 | 152 | 4.8 | 9.7 | 0.00 | 0.23 | 0.00 | 73 | |
| 20260502232528 | 23 | 154 | 6.4 | 11.3 | 0.00 | 0.23 | 0.00 | 74 | |
| 20260502231528 | 22 | 159 | 3.2 | 9.7 | 0.00 | 0.23 | 0.00 | 75 | |
| 20260502230528 | 22 | 133 | 3.2 | 8.0 | 0.00 | 0.23 | 0.00 | 76 | |
| 20260502225528 | 21 | 139 | 3.2 | 6.4 | 0.00 | 0.23 | 0.00 | 77 | |
| 20260502224530 | 21 | 139 | 4.8 | 8.0 | 0.00 | 0.23 | 0.00 | 78 | |
| 20260502223528 | 21 | 167 | 1.6 | 6.4 | 0.00 | 0.23 | 0.00 | 79 | |
| 20260502222528 | 20 | 182 | 3.2 | 6.4 | 0.00 | 0.23 | 0.00 | 80 | |
| 20260502221528 | 20 | 138 | 3.2 | 4.8 | 0.00 | 0.23 | 0.00 | 82 | |
| 20260502220528 | 20 | 149 | 3.2 | 8.0 | 0.00 | 0.23 | 0.00 | 83 | |
| 20260502215528 | 19 | 137 | 1.6 | 4.8 | 0.00 | 0.23 | 0.00 | 84 | |
| 20260502214528 | 18 | 170 | 3.2 | 8.0 | 0.00 | 0.23 | 0.00 | 84 | |
| 20260502213528 | 18 | 142 | 3.2 | 6.4 | 0.00 | 0.23 | 0.00 | 85 | |
| 20260502212528 | 18 | 149 | 1.6 | 6.4 | 0.00 | 0.23 | 0.00 | 86 | |
| 20260502211528 | 17 | 159 | 1.6 | 3.2 | 0.00 | 0.23 | 0.00 | 87 | |
| 20260502210528 | 17 | 135 | 1.6 | 6.4 | 0.00 | 0.23 | 0.00 | 88 | |
| 20260502205528 | 17 | 158 | 0.0 | 3.2 | 0.00 | 0.23 | 0.00 | 88 | |
| 20260502204528 | 17 | 148 | 1.6 | 3.2 | 0.00 | 0.23 | 0.00 | 89 | |
| 20260502203528 | 17 | 158 | 0.0 | 3.2 | 0.00 | 0.23 | 0.00 | 88 | |
| 20260502202528 | 17 | 338 | 0.0 | 3.2 | 0.00 | 0.23 | 0.00 | 88 | |
| 20260502201528 | 17 | 325 | 1.6 | 6.4 | 0.00 | 0.23 | 0.00 | 88 | |
| 20260502200528 | 17 | 315 | 0.0 | 3.2 | 0.00 | 0.23 | 0.00 | 88 | |
| 20260502195528 | 17 | 22 | 0.0 | 3.2 | 0.00 | 0.23 | 0.00 | 88 | |
| 20260502194528 | 17 | 265 | 0.0 | 3.2 | 0.00 | 0.23 | 0.00 | 88 | |
| 20260502193528 | 17 | 331 | 0.0 | 1.6 | 0.00 | 0.23 | 0.00 | 88 | |
| 20260502192528 | 17 | 330 | 0.0 | 3.2 | 0.00 | 0.23 | 0.00 | 88 | |
| 20260502191528 | 17 | 326 | 0.0 | 6.4 | 0.00 | 0.23 | 0.00 | 88 | |
| 20260502190528 | 17 | 343 | 0.0 | 3.2 | 0.00 | 0.23 | 0.00 | 88 | |
| 20260502185528 | 17 | 0.0 | 0.0 | 0.00 | 0.23 | 0.00 | 89 | ||
| 20260502184528 | 17 | 324 | 0.0 | 1.6 | 0.00 | 0.33 | 0.00 | 88 | |
| 20260502183528 | 17 | 318 | 0.0 | 3.2 | 0.00 | 0.33 | 0.00 | 89 | |
| 20260502182528 | 17 | 315 | 0.0 | 3.2 | 0.00 | 0.33 | 0.00 | 89 | |
| 20260502181528 | 17 | 43 | 0.0 | 3.2 | 0.00 | 0.33 | 0.00 | 90 | |
| 20260502180528 | 17 | 344 | 0.0 | 3.2 | 0.00 | 0.33 | 0.00 | 90 | |
| 20260502163528 | 18 | 237 | 0.0 | 3.2 | 0.00 | 0.36 | 0.00 | 92 | |
| 20260502162528 | 18 | 315 | 0.0 | 3.2 | 0.00 | 0.36 | 0.00 | 92 | |
| 20260502161528 | 18 | 315 | 0.0 | 3.2 | 0.00 | 0.48 | 0.00 | 92 | |
| 20260502160528 | 18 | 338 | 0.0 | 3.2 | 0.00 | 0.48 | 0.00 | 93 | |
| 20260502151528 | 18 | 0.0 | 0.0 | 0.00 | 0.48 | 0.00 | 93 | ||
| 20260502150528 | 18 | 338 | 0.0 | 3.2 | 0.00 | 0.48 | 0.00 | 93 | |
| 20260502130528 | 19 | 202 | 0.0 | 3.2 | 0.00 | 0.48 | 0.48 | 96 | |
| 20260502123528 | 19 | 202 | 1.6 | 3.2 | 0.00 | 0.48 | 0.48 | 96 | |
| 20260502122528 | 19 | 0.0 | 0.0 | 0.00 | 0.48 | 0.48 | 96 | ||
| 20260502121528 | 19 | 202 | 0.0 | 3.2 | 0.00 | 0.48 | 0.48 | 96 | |
| 20260502120528 | 20 | 0.0 | 0.0 | 0.05 | 0.48 | 0.48 | 95 | ||
| 20260502115528 | 20 | 180 | 0.0 | 1.6 | 0.05 | 0.48 | 0.48 | 95 | |
| 20260502114528 | 20 | 135 | 1.6 | 4.8 | 0.05 | 0.48 | 0.48 | 94 | |
| 20260502113528 | 20 | 188 | 3.2 | 8.0 | 0.05 | 0.51 | 0.48 | 95 | |
| 20260502112528 | 19 | 158 | 1.6 | 4.8 | 0.05 | 0.56 | 0.48 | 95 | |
| 20260502111528 | 19 | 0.0 | 0.0 | 0.05 | 0.64 | 0.48 | 96 | ||
| 20260502110527 | 19 | 0.0 | 0.0 | 0.00 | 0.64 | 0.43 | 96 | ||
| 20260502105528 | 19 | 180 | 1.6 | 9.7 | 0.00 | 0.71 | 0.43 | 96 | |
| 20260502104527 | 19 | 0.0 | 0.0 | 0.00 | 0.76 | 0.43 | 96 | ||
| 20260502103528 | 19 | 0.0 | 0.0 | 0.00 | 0.76 | 0.43 | 96 | ||
| 20260502102528 | 19 | 0.0 | 0.0 | 0.00 | 0.76 | 0.43 | 95 | ||
| 20260502101528 | 19 | 0.0 | 0.0 | 0.00 | 0.76 | 0.43 | 96 | ||
| 20260502100528 | 20 | 0.0 | 0.0 | 0.00 | 0.76 | 0.43 | 95 | ||
| 20260502091528 | 20 | 180 | 0.0 | 3.2 | 0.00 | 0.76 | 0.43 | 92 | |
| 20260502090528 | 20 | 0.0 | 0.0 | 0.00 | 0.76 | 0.43 | 93 | ||
| 20260502071528 | 21 | 338 | 0.0 | 3.2 | 0.08 | 0.76 | 0.43 | 94 | |
| 20260502070528 | 21 | 202 | 0.0 | 1.6 | 0.08 | 0.76 | 0.43 | 93 | |
| 20260502065528 | 21 | 206 | 1.6 | 4.8 | 0.13 | 0.76 | 0.43 | 92 | |
| 20260502064528 | 21 | 202 | 0.0 | 1.6 | 0.05 | 0.69 | 0.36 | 91 | |
| 20260502063528 | 21 | 202 | 0.0 | 4.8 | 0.05 | 0.69 | 0.36 | 91 | |
| 20260502062528 | 21 | 148 | 1.6 | 8.0 | 0.13 | 0.69 | 0.36 | 91 | |
| 20260502061528 | 21 | 180 | 1.6 | 3.2 | 0.13 | 0.69 | 0.36 | 91 | |
| 20260502060528 | 22 | 183 | 3.2 | 6.4 | 0.13 | 0.69 | 0.36 | 89 | |
| 20260502055528 | 22 | 165 | 3.2 | 6.4 | 0.08 | 0.64 | 0.33 | 88 | |
| 20260502054528 | 22 | 147 | 3.2 | 8.0 | 0.08 | 0.64 | 0.33 | 89 | |
| 20260502053529 | 22 | 202 | 1.6 | 6.4 | 0.08 | 0.64 | 0.33 | 88 | |
| 20260502052528 | 23 | 176 | 3.2 | 8.0 | 0.00 | 0.56 | 0.23 | 84 | |
| 20260502051528 | 23 | 144 | 3.2 | 11.3 | 0.00 | 0.56 | 0.23 | 83 | |
| 20260502050527 | 23 | 142 | 3.2 | 9.7 | 0.00 | 0.56 | 0.23 | 81 |